Погода в Булунгуре

Узбекистан     39°45′46″N   67°16′22″E
темп.,
°C
ветер,
м/с
пор.,
м/с
влажн.,
%
обл.,
%
осадки,
мм/ч
давл.,
гПа
погр.,
м
27 февраля, сб
сб2723:00−7всв227482 0.0 102938
02:00−6с0071100 0.0 102827
05:00−5сз1167100 0.0 102828
08:00−4сз1149100 0.0 102878
11:000з2240100 0.0 1029538
14:00+3зсз343619 0.0 1027892
17:00+4с123710 0.0 1027877
20:00−1всв33580 0.0 102959
28 февраля, вс
вс2823:00−1св23570 0.0 102849
02:00−1всв22530 0.0 102628
05:00−1всв23530 0.0 102426
08:000всв23490 0.0 102446
11:00+6всв23370 0.0 1021303
14:00+9всв22310 0.0 1019477
17:00+9всв22350 0.0 1018352
20:00+5всв335230 0.0 101943
1 марта, пн
пн123:00+4всв234563 0.0 102025
02:00+5в1141100 0.0 102022
05:00+5в1239100 0.0 102022
08:00+5всв223799 0.0 102022
11:00+12в112250 0.0 1019257
14:00+17зюз49160 0.0 10181934
17:00+16зюз58190 0.0 10171330
20:00+11з23310 0.0 102022
2 марта, вт
вт223:00+9ююз123833 0.0 102025
02:00+8ююв123891 0.0 102124
05:00+8всв113596 0.0 102022
08:00+8вюв2235100 0.0 102124
11:00+14в3425100 0.0 1021306
14:00+15св2123100 0.0 1020739
17:00+15зсз3425100 0.0 10202122
20:00+11ссв2342100 0.0 1021135
3 марта, ср
ср323:00+9ссв225199 0.0 102245
02:00+8ссв1255100 0.0 102126
05:00+7всв2364100 0.0 102143
08:00+7ссв227494 0.0 102177
11:00+10сз225997 0.0 1020906
14:00+9ссз4468100 0.1 1019581
17:00+9в336996 0.1 1018394
20:00+6всв348098 0.0 101893